RH
44 45 45 45 47 50 56 60 59 58 56 52 51 52 49 44 42 41 40 40 39 41 44 46 44 39 38 39 39 40 41 38 35 35 37 38 39 40 42 43 44 43
41 43 44 44 45 48 52 56 56 56 56 52 50 50 48 45 43 42 41 40 41 42 44 46 44 41 40 40 39 39 38 36 35 33 34 37 39 40 41 42 43 43
38 40 43 44 45 46 49 52 53 54 55 55 53 52 50 48 46 44 42 42 42 45 47 46 45 44 44 43 40 38 36 36 35 33 32 34 37 39 39 39 42 43
35 37 39 42 44 46 48 50 51 51 52 53 55 55 53 51 49 46 43 41 40 42 45 45 44 45 46 46 43 40 37 36 36 35 33 32 33 35 36 36 39 41
33 34 36 38 42 45 47 48 49 49 50 50 52 55 54 53 52 49 44 39 36 36 38 39 40 42 44 44 41 39 37 36 36 35 33 32 31 32 33 34 36 39
32 32 33 33 36 42 45 46 46 47 48 48 48 49 51 52 52 49 45 39 35 33 32 32 35 37 40 41 39 36 36 35 36 36 33 31 31 31 32 34 35 37
32 31 31 31 32 36 41 44 44 45 46 48 47 46 47 50 49 46 42 39 35 33 30 29 32 34 35 38 38 36 38 37 36 37 33 29 31 32 33 35 36 37
30 30 31 30 29 32 37 41 42 43 45 48 47 46 47 48 48 46 43 38 35 34 31 29 30 32 33 37 38 37 39 38 36 35 33 31 30 32 33 35 36 37
28 30 31 31 30 29 32 37 40 41 44 47 47 46 47 48 48 48 45 40 35 34 33 31 30 29 30 34 36 36 37 38 36 34 33 31 31 31 32 35 37 37
27 29 30 31 31 29 29 32 36 38 41 44 46 46 48 49 50 49 46 42 38 36 35 33 31 29 29 30 32 33 34 36 37 36 34 33 32 32 33 34 35 36
28 27 27 28 29 30 28 29 31 34 37 40 44 46 46 47 49 49 47 43 41 39 37 35 32 30 29 28 29 30 30 31 32 33 34 34 34 34 34 34 35 35
32 27 26 26 27 29 29 29 29 30 32 36 41 44 46 45 45 46 46 43 41 39 38 36 35 33 31 30 29 29 29 29 29 29 30 32 32 33 33 34 34 34
44 35 30 27 27 28 29 28 27 27 29 32 37 41 44 45 44 43 44 41 39 37 36 34 33 33 33 32 30 29 29 29 29 29 30 30 30 31 32 32 33 33
60 53 44 35 30 29 29 29 27 26 26 28 32 37 40 42 43 43 42 40 37 35 34 33 32 31 31 31 30 30 29 29 28 28 28 29 29 29 30 30 31 31
71 68 63 52 40 32 31 31 30 28 27 27 29 33 37 40 41 42 43 42 39 36 33 32 32 31 30 29 29 29 28 28 27 26 26 25 26 26 26 27 28 28
79 75 73 67 55 44 40 38 35 31 29 28 29 32 36 40 41 42 42 42 41 39 36 34 32 32 31 31 30 30 29 28 28 27 26 25 24 23 23 23 25 26
86 81 78 74 68 60 57 54 47 41 35 31 30 31 33 36 39 40 41 41 41 40 38 36 33 32 32 32 31 31 30 30 29 29 29 28 27 26 25 23 23 23
89 87 83 80 77 73 71 67 61 54 48 41 36 32 32 33 34 36 37 39 39 40 39 38 36 33 33 33 33 32 32 32 31 30 30 29 29 29 28 27 25 23
89 88 86 84 82 80 77 73 68 64 60 55 49 44 40 37 36 34 33 34 36 38 39 39 38 37 36 35 35 35 34 34 32 32 31 30 30 29 29 29 28 27
90 90 89 87 85 83 80 77 74 70 67 64 62 57 52 48 45 41 38 37 36 37 38 38 39 39 39 39 39 38 37 36 35 35 34 33 32 31 31 30 30 30
89 89 90 88 86 84 83 81 78 76 73 71 69 65 60 57 54 50 46 44 42 41 40 40 40 40 39 39 40 41 40 38 37 36 36 36 35 33 33 32 32 31
88 88 89 89 87 86 86 84 82 80 78 76 74 71 68 65 62 58 54 50 48 47 47 48 49 49 48 46 44 45 45 44 42 40 41 41 40 39 38 38 37 35
87 86 87 89 88 87 86 85 84 82 80 79 79 77 76 73 71 69 66 63 58 55 53 54 54 54 53 54 54 54 54 53 51 49 48 47 47 46 45 44 44 42
81 80 83 86 87 86 85 85 85 84 83 82 83 82 81 80 78 77 75 73 72 67 61 57 55 53 52 53 55 56 57 56 55 54 53 52 51 51 50 49 48 48
74 74 76 79 82 84 84 85 86 87 87 87 86 86 85 83 83 82 80 79 78 75 71 68 66 63 61 59 58 58 59 59 58 56 54 53 53 53 53 52 51 50
64 65 65 68 72 75 77 78 78 79 82 86 87 87 86 84 84 85 85 83 81 79 79 79 78 76 73 70 69 68 67 66 64 62 59 56 54 52 52 52 53 53